Regional Weather Roundup
Issued by NWS

Home | Current Version | Previous Version | Text Only | Print | Product List | Glossary Off
Versions: 1 2 3 4 5 6 7 8 9 10 11 12 13 14 15 16 17 18 19 20 21 22 23 24 25 26 27 28 29 30 31 32 33 34 35 36 37 38 39 40 41 42 43 44 45 46 47 48 49 50

000
ASUS43 KLSX 281559
RWRMO

WEATHER SUMMARY FOR MISSOURI
NATIONAL WEATHER SERVICE SPRINGFIELD MO
1100 AM CDT FRI APR 28 2017

NOTE: "FAIR" INDICATES FEW OR NO CLOUDS BELOW 12,000 FEET WITH NO
       SIGNIFICANT WEATHER AND/OR OBSTRUCTIONS TO VISIBILITY.
       CURRENT SKY AND/OR WEATHER CONDITIONS ARE NOT AVAILABLE FOR
       CHILLICOTHE AND FARMINGTON.

MOZ001>031-035>038-043-044-053-054-281700-
...NORTHERN AND WESTERN MISSOURI...

CITY           SKY/WX    TMP DP  RH WIND       PRES   REMARKS
KANSAS CTY INT CLOUDY    55  53  93 SE9       29.67S
KANSAS C DTWN  CLOUDY    58  54  86 VRB5      29.67R
LEE`S SUMMIT   CLOUDY    57  55  93 VRB6      29.68R
ST JOSEPH      LGT RAIN  48  48 100 E9        29.69F FOG
CHILLICOTHE      N/A     50  49  96 NE5       29.74S
KIRKSVILLE     LGT RAIN  47  47 100 NE9       29.77F FOG

$$
MOZ066>068-077>081-088>096-101>105-281700-
...SOUTHWEST MISSOURI...

CITY           SKY/WX    TMP DP  RH WIND       PRES   REMARKS
SPRINGFIELD    CLOUDY    59  55  87 SE16      29.68R
JOPLIN         CLOUDY    59  58  96 SE6       29.67S
BRANSON        CLOUDY    59  55  88 SE12      29.72S

$$
MOZ032>034-039>042-045>050-055>058-069>072-281700-
...CENTRAL MISSOURI...

CITY           SKY/WX    TMP DP  RH WIND       PRES   REMARKS
COLUMBIA       LGT RAIN  55  54  96 SE8       29.77R
JEFFERSON CITY LGT RAIN  58  54  86 SE8       29.77S
ROLLA          TSTM      56  54  93 SE13G21   29.76F
SEDALIA        LGT RAIN  57  32  38 SE6       29.74R
WHITEMAN AFB   LGT RAIN  55  55 100 SE16G23   29.65F
OSAGE BEACH    CLOUDY    57  54  89 NE6       29.75S

$$
MOZ051-052-059>065-281700-
...EAST CENTRAL MISSOURI...

CITY           SKY/WX    TMP DP  RH WIND       PRES   REMARKS
ST LOUIS INTL  LGT RAIN  57  53  86 MISG      29.83F
SPIRIT OF STL  TSTM      56  54  93 S6        29.84R
ST CHARLES     CLOUDY    58  55  90 SE18      29.80F

$$
MOZ072>076-082>087-097>100-106>115-281700-
...SOUTH CENTRAL AND SOUTHEAST MISSOURI...

CITY           SKY/WX    TMP DP  RH WIND       PRES   REMARKS
CAPE GIRARDEAU CLOUDY    61  54  77 E9        29.85F
FARMINGTON     CLOUDY    63  55  75 S12       29.82F
POPLAR BLUFF   CLOUDY    64  58  80 E10       29.80F
WEST PLAINS    CLOUDY    62  55  77 E9        29.75F

$$



USA.gov is the U.S. government's official web portal to all federal, state and local government web resources and services.